Weather Roundup
Issued by NWS

Home | Current Version | Previous Version | Graphics & Text | Print | Product List | Glossary Off
Versions: 1 2 3 4 5 6 7 8 9 10 11 12 13 14 15 16 17 18 19 20 21 22 23 24 25 26 27 28 29 30 31 32 33 34 35 36 37 38 39 40 41 42 43 44 45 46 47 48 49 50

000
NZUS93 KARX 172010
HRRWXR

CURRENT HOURLY OBSERVATIONS ACROSS
MUCH OF THE UPPER MISSISSIPPI VALLEY
NATIONAL WEATHER SERVICE LA CROSSE WI
200 PM CST SAT FEB 17 2018


...SOUTHEAST MINNESOTA...


CITY           SKY/WX    TMP DP  RH WIND       PRES   REMARKS
ROCHESTER      CLOUDY    27  23  85 W14       29.88R WCI  16
ROCHESTER/MAYO CLOUDY    28  24  82 W13G18    29.89R WCI  18
WINONA         CLOUDY    30  23  74 W5        29.89S WCI  25
AUSTIN         CLOUDY    28  23  80 W12       29.89S WCI  18
ALBERT LEA     CLOUDY    28  21  74 W9        29.90S WCI  20
DODGE CENTER   CLOUDY    27  23  86 W13       29.88R WCI  16
PRESTON        CLOUDY    26  21  83 W13       29.89S WCI  15
OWATONNA       PTSUNNY   30  25  80 W9        29.90S WCI  22
FARIBAULT      FAIR      30  25  80 W10       29.90R WCI  21
$$

...ELSEWHERE IN MINNESOTA...


CITY           SKY/WX    TMP DP  RH WIND       PRES   REMARKS
MINNEAPOLIS    PTSUNNY   35  23  61 W10G21    29.88S WCI  27
INTNL FALLS    FAIR      20   2  45 NW16G24   29.77S WCI   6
DULUTH         PTSUNNY   28  12  51 W21G28    29.75S WCI  15
RED WING       CLOUDY    30  19  64 W10       29.89S WCI  21
REDWOOD FALLS  MOSUNNY   37  17  44 NW16      29.93R WCI  28
MANKATO        PTSUNNY   35  23  61 NW13      29.91S WCI  26
WORTHINGTON    MOSUNNY   33  26  75 W16       29.96R WCI  23
FAIRMONT       LGT RAIN  33  25  72 W17       29.94R WCI  22
$$

...SOUTHWEST WISCONSIN...


CITY           SKY/WX    TMP DP  RH WIND       PRES   REMARKS
LA CROSSE      CLOUDY    30  23  75 W6        29.90F WCI  24
PRAIRIE DU CHI LGT SNOW  28  25  86 SW3       29.93S
BOSCOBEL       SNOW      28  25  88 VRB3      29.92S VSB 1/2
LONE ROCK      SNOW      26  24  92 SW3       29.91S VSB 1/4
PLATTEVILLE    CLOUDY    28  28  98 SW6       29.90S WCI  22
FORT MC COY    LGT SNOW  28  23  84 W8        29.90S WCI  19
CAMP DOUGLAS   LGT SNOW  27  23  86 SW10      29.88S FOG     WCI  17
MAUSTON-NEW LI LGT SNOW  26  22  85 SW6       29.87F WCI  20
VIROQUA        CLOUDY    26  24  91 W10       29.87S WCI  16
WIS DELLS      LGT SNOW  27  19  71 W12       29.88S WCI  17
$$

...ELSEWHERE IN WISCONSIN...


CITY           SKY/WX    TMP DP  RH WIND       PRES   REMARKS
MILWAUKEE      CLOUDY    33  19  56 S8        29.91F WCI  26
MADISON        LGT SNOW  28  21  75 S9        29.90F WCI  19
GREEN BAY      LGT SNOW  25  20  81 SW9       29.88F VSB 1   WCI  15
EAU CLAIRE     CLOUDY    27  22  81 SW8       29.85F WCI  19
BLACK RVR FLS  LGT SNOW  28  22  77 SW5       29.88F WCI  23
MEDFORD        CLOUDY    23  19  83 SW8       29.81S WCI  14
WAUSAU         LGT SNOW  23  20  88 SW9       29.81F VSB 3/4 WCI  13
WIS RAPIDS     LGT SNOW  25  20  81 SW6       29.87F VSB 1   WCI  18
MARSHFIELD     LGT SNOW  24  20  84 W12       29.82F FOG     WCI  13
RICE LAKE      FAIR      31  22  67 W9        29.84F WCI  23
$$

...NORTHEAST IOWA...


CITY           SKY/WX    TMP DP  RH WIND       PRES   REMARKS
WATERLOO       CLOUDY    29  24  82 W17       29.94R WCI  17
DUBUQUE        SNOW      27  24  89 W9        29.90S VSB 1/2 WCI  18
DECORAH        CLOUDY    27  23  86 W8        29.89S WCI  18
MASON CITY     CLOUDY    30  25  81 W13       29.93R WCI  20
CHARLES CITY   CLOUDY    28  28 100 W13       29.93R WCI  18
OELWEIN        CLOUDY    27  27 100 W12       29.91F WCI  16
$$

...ELSEWHERE IN IOWA...


CITY           SKY/WX    TMP DP  RH WIND       PRES   REMARKS
DES MOINES     MOSUNNY   37  27  67 W16       29.98R WCI  28
IOWA CITY      CLOUDY    32  25  75 NW20G28   29.95S WCI  20
FORT DODGE     MOSUNNY   32  27  81 NW9       29.96S WCI  24
MARSHALLTOWN   CLOUDY    32  26  78 NW17      29.95R WCI  21
CEDAR RAPIDS   CLOUDY    31  26  82 W13       29.92S WCI  21
$$

...NORTHERN ILLINOIS...


CITY           SKY/WX    TMP DP  RH WIND       PRES   REMARKS
CHICAGO-OHARE  CLOUDY    35  26  69 S9        29.92F WCI  28
CHICAGO-MIDWAY CLOUDY    35  27  72 S12       29.94F WCI  27
MOLINE         LGT SNOW  32  30  92 SW14      29.92R VSB 1   WCI  22
ROCKFORD       SNOW      30  26  85 S10       29.93F VSB 1/2 WCI  21
PEORIA         SNOW      32  31  96 SW9       29.94F VSB 1/2 WCI  24
$$

NOTE: "FAIR" INDICATES FEW OR NO CLOUDS BELOW 12,000 FEET WITH NO
SIGNIFICANT WEATHER AND/OR OBSTRUCTIONS TO VISIBILITY. WIND
SPEEDS ARE IN MILES-PER-HOUR.




USA.gov is the U.S. government's official web portal to all federal, state and local government web resources and services.